This demonstration page uses our WeatherBlox Daily Observations layout. Learn more.

Left ArrowRight Arrow

39.92423, -83.80882

Hourly Observations for February 13, 2020

Temp ( °F °C ) Dew Point ( °F °C ) Humidity (%) Winds ( mph kmh ) Pressure ( in mb ) Visibility ( mi km ) Precip ( " mm )
12:28 am 00:28 Cloudy with Light Wintry Mix 34 1 34 1 100 100 NNW 8 13 29.76 1008 3 4 0.00 0.00
12:44 am 00:44 Cloudy with Light Wintry Mix 34 1 34 1 100 100 N 7 11 29.75 1007 4 6 0.00 0.00
12:56 am 00:56 Cloudy with Light Wintry Mix 33 0.6 33 0.6 100 100 N 9 15 29.70 1006 4 6 0.00 0.00
1:56 am 01:56 Cloudy with Mist and Fog 33 0.6 33 0.6 100 100 N 5 7 29.73 1007 3 5 0.00 0.00
2:07 am 02:07 Cloudy with Mist and Fog 34 1 34 1 100 100 NNW 6 9 29.76 1008 3 4 N/A
2:35 am 02:35 Cloudy with Light Wintry Mix 32 undefined 32 undefined 100 100 NNW 5 7 29.76 1008 2 3 0.00 0.00
2:56 am 02:56 Cloudy with Light Wintry Mix 32 undefined 32 undefined 100 100 N 7 11 29.74 1007 2 2 0.00 0.00
3:56 am 03:56 Cloudy with Light Wintry Mix 32 undefined 32 undefined 100 100 NNE 3 6 29.73 1007 2 3 0.00 0.00
4:09 am 04:09 Cloudy with Mist and Fog 32 undefined 32 undefined 100 100 NNE 8 13 29.74 1007 3 5 0.00 0.00
4:31 am 04:31 Cloudy with Mist and Fog 32 undefined 32 undefined 100 100 N 7 11 29.75 1008 5 8 0.00 0.00
4:49 am 04:49 Cloudy with Mist and Fog 32 undefined 32 undefined 100 100 N 10 17 29.75 1008 3 5 0.00 0.00
4:56 am 04:56 Cloudy with Mist and Fog 32 undefined 32 undefined 100 100 NNE 10 17 29.71 1006 4 6 0.00 0.00
5:16 am 05:16 Cloudy with Light Freezing Rain 32 undefined 32 undefined 100 100 N 7 11 29.75 1008 3 5 0.00 0.00
5:23 am 05:23 Cloudy with Light Freezing Rain 32 undefined 32 undefined 100 100 N 9 15 29.75 1008 3 4 0.00 0.00
5:31 am 05:31 Cloudy with Light Freezing Rain 32 undefined 32 undefined 100 100 N 9 15 29.75 1008 3 5 0.00 0.00
5:40 am 05:40 Cloudy with Light Freezing Rain 32 undefined 32 undefined 100 100 N 12 19 29.76 1008 3 4 0.00 0.00
5:47 am 05:47 Cloudy with Light Freezing Rain 32 undefined 32 undefined 100 100 NNW 9 15 29.77 1008 3 5 0.00 0.00
5:54 am 05:54 Cloudy with Light Freezing Rain 32 undefined 32 undefined 100 100 N 8 13 29.77 1008 2 3 0.00 0.00
5:56 am 05:56 Cloudy with Light Freezing Rain 32 undefined 32 undefined 100 100 N 10 17 29.76 1008 2 3 0.00 0.00
6:11 am 06:11 Cloudy with Light Freezing Rain 32 undefined 32 undefined 100 100 N 10 17 29.80 1009 3 5 0.00 0.00
6:19 am 06:19 Cloudy with Light Snow 32 undefined 32 undefined 100 100 N 8 13 29.80 1009 2 3 0.00 0.00
6:27 am 06:27 Cloudy with Light Snow 30 -1 30 -1 100 100 N 9 15 29.81 1009 2 2 0.00 0.00
6:45 am 06:45 Cloudy with Light Snow 30 -1 30 -1 100 100 N 10 17 29.82 1010 3 4 0.00 0.00
6:53 am 06:53 Cloudy with Light Snow 30 -1 30 -1 100 100 N 10 17 29.82 1010 4 6 0.00 0.00
6:56 am 06:56 Cloudy with Light Snow 31 -0.6 31 -0.6 100 100 N 9 15 29.81 1010 5 8 0.00 0.00
7:13 am 07:13 Cloudy with Light Snow 30 -1 30 -1 100 100 N 9 15 29.83 1010 3 4 0.00 0.00
7:19 am 07:19 Cloudy with Light Snow 30 -1 30 -1 100 100 N 10 17 29.83 1010 2 3 0.00 0.00
7:39 am 07:39 Cloudy with Light Snow 30 -1 30 -1 100 100 NNW 6 9 29.84 1010 1 2 0.00 0.00
7:45 am 07:45 Cloudy with Light Snow 30 -1 30 -1 100 100 NNW 7 11 29.85 1011 1 2 0.00 0.00
7:51 am 07:51 Cloudy with Light Snow 30 -1 30 -1 100 100 NNW 7 11 29.85 1011 2 2 0.00 0.00
7:56 am 07:56 Cloudy with Light Snow 30 -1.1 30 -1.1 100 100 N 6 9 29.82 1010 2 2 0.00 0.00
8:07 am 08:07 Cloudy with Light Snow 30 -1 30 -1 100 100 NW 3 6 29.85 1011 2 3 0.00 0.00
8:15 am 08:15 Cloudy with Light Snow 30 -1 30 -1 100 100 NW 5 7 29.85 1011 3 4 0.00 0.00
8:21 am 08:21 Cloudy with Light Snow 30 -1 30 -1 100 100 NNW 6 9 29.85 1011 4 6 0.00 0.00
8:56 am 08:56 Cloudy with Mist and Fog 31 -0.6 31 -0.6 100 100 NW 7 11 29.85 1011 6 10 0.00 0.00
9:13 am 09:13 Cloudy with Mist and Fog 30 -1 30 -1 100 100 NW 8 13 29.88 1012 5 8 N/A
9:20 am 09:20 Cloudy with Light Wintry Mix 30 -1 30 -1 100 100 NW 10 17 29.89 1012 5 8 0.00 0.00
9:34 am 09:34 Cloudy with Light Wintry Mix 30 -1 30 -1 100 100 NW 7 11 29.90 1012 4 6 0.00 0.00
9:56 am 09:56 Cloudy with Light Snow 31 -0.6 31 -0.6 100 100 NW 12 19 29.88 1012 6 10 0.00 0.00
10:56 am 10:56 Cloudy with Light Snow 31 -0.6 30 -1.1 96 96 WNW 7 11 29.92 1013 9 14 0.00 0.00
11:56 am 11:56 Cloudy 32 undefined 30 -1.1 92 92 WNW 13 20 29.94 1014 8 13 0.00 0.00
12:04 pm 12:04 Cloudy 32 undefined 30 -1 93 93 W 12 19 29.96 1015 7 11 N/A
12:11 pm 12:11 Cloudy with Mist and Fog 32 undefined 30 -1 93 93 WNW 13 20 29.97 1015 6 10 N/A
12:46 pm 12:46 Cloudy 34 1 30 -1 87 87 W 14 22 29.97 1015 8 13 N/A
12:56 pm 12:56 Cloudy 33 0.6 31 -0.6 92 92 W 12 19 29.96 1015 8 13 N/A
1:56 pm 13:56 Cloudy 33 0.6 32 undefined 96 96 W 15 24 29.97 1015 9 14 N/A
2:56 pm 14:56 Cloudy 34 1.1 32 undefined 92 92 W 13 20 30.01 1016 10 16 N/A
3:12 pm 15:12 Cloudy with Light Rain 34 1 32 undefined 93 93 W 17 28 30.03 1017 10 16 0.00 0.00
3:56 pm 15:56 Cloudy with Light Snow 33 0.6 32 undefined 96 96 W 16 26 30.03 1017 7 11 0.00 0.00
4:09 pm 16:09 Cloudy with Light Rain 34 1 32 undefined 93 93 WNW 13 20 30.06 1018 3 4 0.00 0.00
4:13 pm 16:13 Cloudy with Light Snow 32 undefined 32 undefined 100 100 W 17 28 30.06 1018 1 2 0.00 0.00
4:16 pm 16:16 Cloudy with Light Snow 32 undefined 32 undefined 100 100 W 15 24 30.06 1018 1 1 0.00 0.00
4:25 pm 16:25 Cloudy with Light Snow 32 undefined 32 undefined 100 100 W 18 30 30.06 1018 1 2 0.00 0.00
4:27 pm 16:27 Windy with Snow Likely 32 undefined 32 undefined 100 100 W 21 33 30.07 1018 2 2 0.00 0.00
4:35 pm 16:35 Cloudy 34 1 30 -1 87 87 W 20 31 30.07 1018 9 14 0.00 0.00
4:56 pm 16:56 Cloudy 32 undefined 29 -1.7 88 88 W 18 30 30.07 1018 10 16 0.00 0.00
5:16 pm 17:16 Cloudy 30 -1 28 -2 93 93 WNW 18 30 30.11 1020 10 16 N/A
5:36 pm 17:36 Cloudy 30 -1 28 -2 93 93 W 22 35 30.13 1020 9 14 N/A
5:56 pm 17:56 Cloudy with Light Snow 29 -1.7 28 -2.2 96 96 WNW 18 30 30.12 1020 6 10 0.00 0.00
6:56 pm 18:56 Cloudy with Light Snow 27 -2.8 27 -2.8 100 100 W 17 28 30.16 1021 9 14 0.00 0.00
7:56 pm 19:56 Cloudy with Light Snow 25 -3.9 25 -3.9 100 100 W 14 22 30.21 1023 9 14 0.00 0.00
8:56 pm 20:56 Cloudy with Light Snow 23 -5 22 -5.6 96 96 W 18 30 30.23 1024 9 14 0.00 0.00
9:47 pm 21:47 Cloudy with Light Snow 21 -6 19 -7 93 93 WNW 15 24 30.29 1026 9 14 0.00 0.00
9:56 pm 21:56 Cloudy with Light Snow 21 -6.1 19 -7.2 92 92 WNW 17 28 30.27 1025 9 14 0.00 0.00
10:56 pm 22:56 Windy with Snow Likely 20 -6.7 17 -8.3 89 89 W 20 31 30.30 1026 9 14 0.00 0.00
11:56 pm 23:56 Cloudy with Light Snow 18 -7.8 15 -9.4 88 88 WNW 14 22 30.33 1027 9 14 0.00 0.00

Powered by AerisWeather